Weather History for Dyersburg, TN

Change the Weather History Date:

Sunday, April 15, 2012

  Actual Average Record
Temperature  
Mean Temperature 74 °F -  
Max Temperature 82 °F 67 °F 84 °F (2002)
Min Temperature 66 °F 49 °F 33 °F (2008)
Cooling Degree Days 9    
Growing Degree Days 24 (Base 50)    
Moisture  
Dew Point 55 °F    
Average Humidity 52    
Maximum Humidity 68    
Minimum Humidity 39    
Precipitation  
Precipitation 0.00 in - - ()
Sea Level Pressure  
Sea Level Pressure 29.92 in    
Wind  
Wind Speed 10 mph (South)    
Max Wind Speed 17 mph    
Max Gust Speed 30 mph    
Visibility 10 miles    
Events      
Averages and records for this station are not official NWS values.
T = Trace of Precipitation, MM = Missing Value Source: NWS Daily Summary

Daily Weather History Graph

Daily Weather History Graph

Search for Another Location

Airport:

Trip Planner

Search our weather history database for the weather conditions in past years. The results will help you decide how hot, cold, wet, or windy it might be!

Date:

Astronomy

Apr. 15, 2012 Rise Set
Actual Time 6:23 AM CDT 7:31 PM CDT
Civil Twilight 5:57 AM CDT 7:58 PM CDT
Nautical Twilight 5:26 AM CDT 8:29 PM CDT
Astronomical Twilight 4:53 AM CDT 9:02 PM CDT
Moon 3:11 AM CDT (4/15) 2:35 PM CDT (4/15)
Length of Visible Light 14h 00m
Length of Day
13h 07m
Waning Crescent, 27% of the Moon is Illuminated
Apr 15
Waning Crescent
Apr 21
New
Apr 29
First Quarter
May 5
Full
May 12
Last Quarter

Hourly Weather History & Observations

Time (CDT) Temp. Heat Index Dew Point Humidity Pressure Visibility Wind Dir Wind Speed Gust Speed Precip Events Conditions
12:15 AM 69.8 °F - 51.8 °F 53% 29.94 in 10.0 mi SSE 8.1 mph - N/A   Clear
12:35 AM 69.8 °F - 51.8 °F 53% 29.94 in 10.0 mi SSE 8.1 mph - N/A   Clear
12:55 AM 69.8 °F - 53.6 °F 56% 29.94 in 10.0 mi SSE 5.8 mph - N/A   Clear
1:15 AM 69.8 °F - 53.6 °F 56% 29.94 in 10.0 mi South 4.6 mph - N/A   Clear
1:35 AM 68.0 °F - 53.6 °F 60% 29.93 in 10.0 mi SSE 5.8 mph - N/A   Clear
1:55 AM 66.2 °F - 53.6 °F 64% 29.93 in 10.0 mi SE 5.8 mph - N/A   Clear
2:15 AM 68.0 °F - 53.6 °F 60% 29.92 in 10.0 mi South 6.9 mph - N/A   Clear
2:35 AM 69.8 °F - 53.6 °F 56% 29.92 in 10.0 mi South 8.1 mph 16.1 mph N/A   Clear
2:55 AM 69.8 °F - 53.6 °F 56% 29.91 in 10.0 mi South 10.4 mph 18.4 mph N/A   Clear
3:15 AM 69.8 °F - 53.6 °F 56% 29.90 in 10.0 mi South 9.2 mph - N/A   Clear
3:35 AM 68.0 °F - 53.6 °F 60% 29.90 in 10.0 mi South 9.2 mph 17.3 mph N/A   Clear
3:55 AM 66.2 °F - 53.6 °F 64% 29.91 in 10.0 mi South 9.2 mph - N/A   Clear
4:15 AM 66.2 °F - 53.6 °F 64% 29.92 in 10.0 mi South 8.1 mph 17.3 mph N/A   Clear
4:35 AM 66.2 °F - 53.6 °F 64% 29.91 in 10.0 mi South 8.1 mph - N/A   Clear
4:55 AM 66.2 °F - 53.6 °F 64% 29.92 in 10.0 mi South 11.5 mph 18.4 mph N/A   Clear
5:15 AM 66.2 °F - 53.6 °F 64% 29.94 in 10.0 mi South 6.9 mph - N/A   Clear
5:35 AM 66.2 °F - 53.6 °F 64% 29.95 in 10.0 mi South 6.9 mph - N/A   Clear
5:55 AM 66.2 °F - 53.6 °F 64% 29.96 in 10.0 mi South 5.8 mph - N/A   Clear
6:15 AM 66.2 °F - 53.6 °F 64% 29.97 in 10.0 mi South 6.9 mph - N/A   Mostly Cloudy
6:35 AM 66.2 °F - 53.6 °F 64% 29.98 in 10.0 mi South 8.1 mph - N/A   Overcast
6:55 AM 66.2 °F - 53.6 °F 64% 29.98 in 10.0 mi South 5.8 mph - N/A   Mostly Cloudy
7:15 AM 66.2 °F - 53.6 °F 64% 29.99 in 10.0 mi SSE 6.9 mph - N/A   Partly Cloudy
7:35 AM 66.2 °F - 53.6 °F 64% 29.99 in 10.0 mi SSE 6.9 mph - N/A   Scattered Clouds
7:55 AM 66.2 °F - 55.4 °F 68% 30.00 in 10.0 mi South 6.9 mph - N/A   Scattered Clouds
8:15 AM 66.2 °F - 55.4 °F 68% 30.00 in 10.0 mi South 6.9 mph - N/A   Overcast
8:35 AM 68.0 °F - 55.4 °F 64% 29.99 in 10.0 mi South 9.2 mph - N/A   Overcast
8:55 AM 69.8 °F - 55.4 °F 60% 29.99 in 10.0 mi SSE 9.2 mph 16.1 mph N/A   Mostly Cloudy
9:15 AM 71.6 °F - 57.2 °F 60% 29.98 in 10.0 mi SSE 13.8 mph 20.7 mph N/A   Mostly Cloudy
9:35 AM 71.6 °F - 57.2 °F 60% 29.98 in 10.0 mi South 12.7 mph 18.4 mph N/A   Mostly Cloudy
9:55 AM 71.6 °F - 57.2 °F 60% 30.01 in 10.0 mi SW 10.4 mph - N/A   Mostly Cloudy
10:15 AM 73.4 °F - 55.4 °F 53% 30.03 in 10.0 mi SSW 10.4 mph 17.3 mph N/A   Overcast
10:35 AM 73.4 °F - 55.4 °F 53% 30.03 in 10.0 mi SW 13.8 mph 21.9 mph N/A   Overcast
10:55 AM 75.2 °F - 57.2 °F 53% 30.02 in 10.0 mi SSW 8.1 mph 17.3 mph N/A   Overcast
11:15 AM 75.2 °F - 57.2 °F 53% 30.00 in 10.0 mi South 11.5 mph 18.4 mph N/A   Mostly Cloudy
11:35 AM 77.0 °F - 57.2 °F 50% 29.99 in 10.0 mi South 15.0 mph 21.9 mph N/A   Mostly Cloudy
11:55 AM 78.8 °F - 57.2 °F 47% 29.99 in 10.0 mi South 16.1 mph 21.9 mph N/A   Mostly Cloudy
12:15 PM 78.8 °F - 57.2 °F 47% 29.98 in 10.0 mi South 9.2 mph 20.7 mph N/A   Scattered Clouds
12:35 PM 78.8 °F - 57.2 °F 47% 29.97 in 10.0 mi SSW 11.5 mph 24.2 mph N/A   Scattered Clouds
12:55 PM 80.6 °F 80.8 °F 57.2 °F 45% 29.96 in 10.0 mi South 13.8 mph 23.0 mph N/A   Partly Cloudy
1:15 PM 80.6 °F 80.8 °F 57.2 °F 45% 29.95 in 10.0 mi South 15.0 mph 24.2 mph N/A   Clear
1:35 PM 80.6 °F 80.8 °F 57.2 °F 45% 29.94 in 10.0 mi South 10.4 mph 24.2 mph N/A   Partly Cloudy
1:55 PM 80.6 °F 80.8 °F 57.2 °F 45% 29.93 in 10.0 mi South 15.0 mph 24.2 mph N/A   Partly Cloudy
2:15 PM 82.4 °F 82.0 °F 57.2 °F 42% 29.92 in 10.0 mi South 10.4 mph 24.2 mph N/A   Clear
2:35 PM 82.4 °F 82.0 °F 57.2 °F 42% 29.90 in 10.0 mi South 16.1 mph 26.5 mph N/A   Clear
2:55 PM 82.4 °F 81.7 °F 55.4 °F 39% 29.90 in 10.0 mi South 11.5 mph 26.5 mph N/A   Clear
3:15 PM 82.4 °F 82.0 °F 57.2 °F 42% 29.89 in 10.0 mi South 15.0 mph 23.0 mph N/A   Clear
3:35 PM 82.4 °F 81.7 °F 55.4 °F 39% 29.89 in 10.0 mi South 17.3 mph 26.5 mph N/A   Clear
3:55 PM 82.4 °F 81.7 °F 55.4 °F 39% 29.89 in 10.0 mi South 13.8 mph 28.8 mph N/A   Clear
4:15 PM 82.4 °F 82.0 °F 57.2 °F 42% 29.88 in 10.0 mi South 11.5 mph 24.2 mph N/A   Clear
4:35 PM 82.4 °F 81.7 °F 55.4 °F 39% 29.88 in 10.0 mi South 15.0 mph 26.5 mph N/A   Partly Cloudy
4:55 PM 82.4 °F 81.7 °F 55.4 °F 39% 29.86 in 10.0 mi SSW 13.8 mph 25.3 mph N/A   Clear
5:15 PM 82.4 °F 81.7 °F 55.4 °F 39% 29.86 in 10.0 mi South 16.1 mph 25.3 mph N/A   Clear
5:35 PM 82.4 °F 81.7 °F 55.4 °F 39% 29.85 in 10.0 mi South 11.5 mph 25.3 mph N/A   Partly Cloudy
5:55 PM 82.4 °F 81.7 °F 55.4 °F 39% 29.84 in 10.0 mi South 11.5 mph 28.8 mph N/A   Partly Cloudy
6:15 PM 80.6 °F 80.5 °F 55.4 °F 42% 29.85 in 10.0 mi South 13.8 mph 26.5 mph N/A   Partly Cloudy
6:35 PM 80.6 °F 80.5 °F 55.4 °F 42% 29.85 in 10.0 mi South 11.5 mph 26.5 mph N/A   Partly Cloudy
6:55 PM 80.6 °F 80.5 °F 55.4 °F 42% 29.84 in 10.0 mi South 15.0 mph 21.9 mph N/A   Clear
7:15 PM 78.8 °F - 55.4 °F 44% 29.84 in 10.0 mi South 11.5 mph 20.7 mph N/A   Clear
7:35 PM 78.8 °F - 55.4 °F 44% 29.84 in 10.0 mi South 11.5 mph 21.9 mph N/A   Clear
7:55 PM 78.8 °F - 55.4 °F 44% 29.84 in 10.0 mi South 9.2 mph 17.3 mph N/A   Clear
8:15 PM 78.8 °F - 55.4 °F 44% 29.83 in 10.0 mi SSE 12.7 mph 18.4 mph N/A   Clear
8:35 PM 77.0 °F - 55.4 °F 47% 29.83 in 10.0 mi SSE 9.2 mph 17.3 mph N/A   Clear
8:55 PM 77.0 °F - 55.4 °F 47% 29.82 in 10.0 mi SSE 11.5 mph 21.9 mph N/A   Clear
9:15 PM 77.0 °F - 57.2 °F 50% 29.82 in 10.0 mi SSE 11.5 mph 18.4 mph N/A   Clear
9:35 PM 77.0 °F - 57.2 °F 50% 29.83 in 10.0 mi South 11.5 mph 21.9 mph N/A   Partly Cloudy
9:55 PM 77.0 °F - 57.2 °F 50% 29.82 in 10.0 mi South 12.7 mph 24.2 mph N/A   Mostly Cloudy
10:15 PM 77.0 °F - 57.2 °F 50% 29.83 in 10.0 mi South 15.0 mph 27.6 mph N/A   Overcast
10:35 PM 77.0 °F - 57.2 °F 50% 29.82 in 10.0 mi South 16.1 mph 28.8 mph N/A   Mostly Cloudy
11:15 PM 77.0 °F - 57.2 °F 50% 29.83 in 10.0 mi South 15.0 mph 25.3 mph N/A   Overcast
11:35 PM 77.0 °F - 57.2 °F 50% 29.83 in 10.0 mi South 15.0 mph 27.6 mph N/A   Mostly Cloudy
11:55 PM 73.4 °F - 57.2 °F 57% 29.87 in 10.0 mi West 16.1 mph 29.9 mph N/A   Mostly Cloudy